Location: doobydoo
(53.3403°N, 2.6908°W)
Time: 00:14:42
(UTC+00:00)

ISS - Pass Details

Date: 03 December 2021
Orbit: 414 x 422 km, 51.6° (Epoch: 16 January)

Event Time Altitude Azimuth Distance (km) Brightness Sun altitude
Rises 17:22:52 0° 276° (W) 2,394 1.3 -12.2°
Reaches altitude 10° 17:25:00 10° 271° (W) 1,525 0.3 -12.5°
Maximum altitude 17:28:21 52° 195° (SSW) 541 -3.0 -13.0°
Enters shadow 17:31:08 14° 120° (ESE) 1,310 -1.6 -13.4°
